sat.trackr.live / text

‹ back to catalog

DUPLEX

NORAD 66906 · 1998-067XS

PAYLOAD ACTIVE UNKNOWN

§ Identity

Operator
Country
US
Launch date
1998-11-20
Launch site
TYMSC
Launch vehicle
Mass (kg)
RCS (m²)

Purposes: station

External: N2YO · Heavens-Above · Gunter

§ Orbital elements

Epoch: 2026-05-25T00:22:34.612032Z

Period
92.27 min
Inclination
51.6288°
Eccentricity
0.0005398
Mean motion
15.60666563 rev/d
Perigee alt
382.1 km
Apogee alt
389.4 km
Semi-major
6,763.9 km
B*
4.0221e-4
RAAN
46.3270°
Arg perigee
104.2596°
Mean anomaly
255.8997°
Rev number
2,703

§ Raw data

DUPLEX1 66906U 98067XS  26145.01567838  .00033649  00000+0  40221-3 0  99992 66906  51.6288  46.3270 0005398 104.2596 255.8997 15.60666563 27034

JSON: /api/v1/satellites/66906 · /tle

For live sub-satellite position, see the globe view (requires WebGL).

§ Visibility from observer

Set your observer location to see the next 7 days of passes ≥ 10°. The values pass through the URL so the page stays shareable.

No JS? Fill the form by hand. The geolocation button needs JavaScript.